Location: La Fredeussais
(48.1780°N, 1.3980°W)
Time: 18:41:05
(UTC+00:00)

Cosmos 1812 - Pass Details

Date: 09 May 2021
Orbit: 514 x 521 km, 82.5° (Epoch: 21 June)

Event Time Altitude Azimuth Distance (km) Brightness Sun altitude
Exits shadow 21:16:29 26° 153° (SSE) 1,054 3.7 -14.6°
Maximum altitude 21:18:17 47° 94° (E) 705 3.0 -14.8°
Drops below altitude 10° 21:22:01 10° 21° (NNE) 1,770 5.8 -15.2°
Sets 21:24:13 0° 15° (NNE) 2,664 6.9 -15.4°
